Flag for Australia Weather past 2 weeks in Dubbo, New South Wales, Australia

Now
52 °F

Passing clouds.


Feels Like: 52 °F
Forecast: 46 / 53 °F
Wind: No wind

Location: Dubbo Airport

Current Time: May 30, 2015 at 11:02:34 PM

Latest Report: May 30, 2015 at 10:00 PM


Visibility: N/A

Pressure: 30.09 "Hg

Humidity: 100%

Dew point: 52 °F

Location of DubboLocation

Historic Weather in Dubbo — Graph

°F

Dubbo temperature yesterday

Maximum temperature yesterday: 64 °F (at 3:00 PM)
Minimum temperature yesterday: 50 °F (at 11:30 PM)
Average temperature yesterday: 57 °F

Past Weeks' High & Low Weather Summary

 TemperatureHumidityPressure
High70 °F (May 16, 1:30 PM)100% (May 16, 6:30 AM)30.57 "Hg (May 16, 6:30 AM)
Low37 °F (May 16, 6:00 AM)40% (May 17, 3:30 PM)29.98 "Hg (May 19, 3:00 PM)
Average55 °F83%30.27 "Hg
* Reported May 15 10:00 PM — May 30 10:00 PM, Dubbo, Weather by CustomWeather, © 2015

Note: Actual official high and low records may vary slightly from our data, if they occured in-between our weather recording intervals... More about our weather records

Advertising

Dubbo weather history for previous 24 hours

 ConditionsComfort  
Time TempWeatherWind HumidityBarometerVisibility
10:00 PM
Sat, May 30
52 °FPassing clouds.No wind100%30.09 "HgN/A
9:30 PM54 °FPassing clouds.5 mph94%30.12 "HgN/A
9:00 PM54 °FPartly cloudy.1 mph94%30.12 "HgN/A
8:30 PM54 °FPartly cloudy.5 mph94%30.15 "HgN/A
8:00 PM54 °FPassing clouds.No wind94%30.12 "HgN/A
7:30 PM54 °FMostly cloudy.3 mph100%30.15 "HgN/A
7:00 PM55 °FPartly cloudy.No wind94%30.15 "HgN/A
6:52 PM55 °FOvercast.1 mph94%30.12 "HgN/A
6:00 PM55 °FOvercast.5 mph94%30.12 "HgN/A
5:30 PM55 °FMostly cloudy.8 mph94%30.12 "HgN/A
5:00 PM55 °FOvercast.8 mph94%30.12 "HgN/A
4:30 PM57 °FOvercast.7 mph88%30.12 "HgN/A
4:00 PM57 °FMostly cloudy.8 mph88%30.12 "HgN/A
3:30 PM59 °FMostly cloudy.7 mph82%30.12 "HgN/A
3:00 PM61 °FMostly cloudy.8 mph77%30.12 "HgN/A
2:30 PM61 °FMore clouds than sun.7 mph77%30.12 "HgN/A
2:00 PM61 °FMore clouds than sun.6 mph77%30.12 "HgN/A
1:30 PM59 °FMore clouds than sun.5 mph77%30.12 "HgN/A
1:00 PM59 °FOvercast.6 mph77%30.15 "HgN/A
12:30 PM59 °FOvercast.6 mph77%30.15 "HgN/A
12:00 PM61 °FMostly cloudy.6 mph77%30.15 "HgN/A
11:30 AM59 °FCloudy.6 mph82%30.18 "HgN/A
11:00 AM57 °FCloudy.7 mph88%30.18 "HgN/A
10:30 AM57 °FOvercast.8 mph88%30.21 "HgN/A
10:00 AM55 °FOvercast.8 mph88%30.21 "HgN/A
9:30 AM55 °FOvercast.8 mph94%30.21 "HgN/A
9:00 AM54 °FMore clouds than sun.8 mph100%30.21 "HgN/A
8:30 AM52 °FMore clouds than sun.6 mph100%30.21 "HgN/A
8:00 AM52 °FMore clouds than sun.6 mph100%30.24 "HgN/A
7:30 AM50 °FPartly sunny.5 mph100%30.21 "HgN/A
6:30 AM50 °FOvercast.5 mph100%30.21 "HgN/A
6:00 AM50 °FPartly sunny.5 mph100%30.18 "HgN/A
5:30 AM50 °FPassing clouds.6 mph100%30.21 "HgN/A
5:00 AM50 °FClear.No wind100%30.18 "HgN/A
4:30 AM50 °FClear.9 mph100%30.18 "HgN/A
4:00 AM50 °FClear.10 mph100%30.21 "HgN/A
3:30 AM50 °FClear.10 mph100%30.21 "HgN/A
3:00 AM50 °FClear.10 mph100%30.21 "HgN/A
2:30 AM52 °FClear.8 mph100%30.21 "HgN/A
2:00 AM50 °FClear.7 mph100%30.21 "HgN/A
1:30 AM50 °FClear.6 mph100%30.21 "Hg2 mi
1:00 AM48 °FClear.2 mph100%30.21 "Hg0 mi
12:30 AM50 °FClear.6 mph100%30.21 "HgN/A
12:00 AM52 °FClear.No wind100%30.24 "Hg0 mi
11:30 PM
Fri, May 29
50 °FClear.No wind100%30.24 "Hg2 mi
11:00 PM52 °FClear.1 mph100%30.24 "Hg4 mi
Weather by CustomWeather, © 2015

See weather overviewHow to use our weather pages